Port Aransas, TX

11:12 AM CST on February 20, 2017 (GMT -0600)
Port Aransas

Weather History for KRAS - October, 2013

Change the Weather History Date:

Sunday, October 20, 2013

  Actual Average (KNGP) Record (KNGP)
Temperature  
Mean Temperature 66 °F -  
Max Temperature 76 °F 80 °F 91 °F (2016)
Min Temperature 58 °F 66 °F 46 °F (1999)
Cooling Degree Days 2    
Growing Degree Days 16 (Base 50)    
Moisture  
Dew Point 58 °F    
Average Humidity 70    
Maximum Humidity 85    
Minimum Humidity 58    
Precipitation  
Precipitation 0.00 in - - ()
Sea Level Pressure  
Sea Level Pressure 30.00 in    
Wind  
Wind Speed 8 mph (ENE)    
Max Wind Speed 12 mph    
Max Gust Speed 16 mph    
Visibility 10 miles    
Events      
Averages and records for this station are not official NWS values.
T = Trace of Precipitation, MM = Missing Value Source: NWS Daily Summary

Daily Weather History Graph

Daily Weather History Graph

Search for Another Location

Airport or City:

Trip Planner

Search our weather history database for the weather conditions in past years. The results will help you decide how hot, cold, wet, or windy it might be!

Date:

Astronomy

Oct. 20, 2013 Rise Set
Actual Time 7:31 AM CDT 6:54 PM CDT
Civil Twilight 7:07 AM CDT 7:17 PM CDT
Nautical Twilight 6:40 AM CDT 7:45 PM CDT
Astronomical Twilight 6:13 AM CDT 8:12 PM CDT
Moon 8:13 PM CDT 9:01 AM CDT
Length of Visible Light 12h 09m
Length of Day
11h 22m
Full, 97% of the Moon is Illuminated
Oct 20
Full
Oct 26
Last Quarter
Nov 3
New
Nov 9
First Quarter
Nov 17
Full

Hourly Weather History & Observations

Time (CDT) Temp. Dew Point Humidity Pressure Visibility Wind Dir Wind Speed Gust Speed Precip Events Conditions
12:15 AM 62.8 °F 47.8 °F 58% 30.07 in 10.0 mi NNE 11.5 mph - N/A   Clear
12:35 AM 63.0 °F 48.0 °F 58% 30.07 in 10.0 mi NNE 10.4 mph - N/A   Clear
12:55 AM 61.9 °F 48.6 °F 62% 30.07 in 10.0 mi NNE 6.9 mph - N/A   Clear
1:15 AM 61.3 °F 48.4 °F 62% 30.06 in 10.0 mi NNE 6.9 mph - N/A   Clear
1:35 AM 61.2 °F 48.7 °F 64% 30.06 in 10.0 mi NNE 8.1 mph - N/A   Clear
1:55 AM 61.3 °F 48.9 °F 64% 30.06 in 10.0 mi NNE 9.2 mph - N/A   Clear
2:15 AM 61.3 °F 49.5 °F 65% 30.05 in 10.0 mi NNE 9.2 mph - N/A   Clear
2:35 AM 61.2 °F 48.9 °F 64% 30.05 in 10.0 mi NNE 8.1 mph - N/A   Clear
2:55 AM 60.8 °F 49.3 °F 66% 30.05 in 10.0 mi NNE 8.1 mph - N/A   Clear
3:15 AM 61.0 °F 48.6 °F 64% 30.04 in 10.0 mi NNE 8.1 mph - N/A   Clear
3:35 AM 61.0 °F 48.9 °F 64% 30.04 in 10.0 mi NNE 8.1 mph - N/A   Clear
3:55 AM 61.0 °F 49.1 °F 65% 30.03 in 10.0 mi NNE 6.9 mph - N/A   Clear
4:15 AM 60.4 °F 50.5 °F 70% 30.03 in 10.0 mi North 4.6 mph - N/A   Clear
4:35 AM 59.9 °F 52.5 °F 77% 30.03 in 10.0 mi North 5.8 mph - N/A   Clear
4:55 AM 59.9 °F 52.9 °F 78% 30.04 in 10.0 mi North 5.8 mph - N/A   Clear
5:15 AM 59.5 °F 52.7 °F 78% 30.03 in 10.0 mi North 5.8 mph - N/A   Clear
5:35 AM 59.4 °F 53.6 °F 81% 30.04 in 10.0 mi North 5.8 mph - N/A   Scattered Clouds
5:55 AM 59.0 °F 53.2 °F 81% 30.04 in 10.0 mi North 5.8 mph - N/A   Scattered Clouds
6:15 AM 59.0 °F 53.8 °F 83% 30.05 in 10.0 mi North 4.6 mph - N/A   Clear
6:35 AM 58.5 °F 53.8 °F 84% 30.04 in 10.0 mi North 5.8 mph - N/A   Clear
6:55 AM 59.0 °F 54.0 °F 83% 30.04 in 10.0 mi North 5.8 mph - N/A   Clear
7:15 AM 59.0 °F 54.0 °F 83% 30.04 in 10.0 mi North 6.9 mph - N/A   Clear
7:35 AM 59.0 °F 54.5 °F 85% 30.04 in 10.0 mi North 5.8 mph - N/A   Clear
7:55 AM 59.7 °F 54.5 °F 83% 30.04 in 10.0 mi NNE 6.9 mph - N/A   Clear
8:15 AM 61.0 °F 54.5 °F 79% 30.05 in 10.0 mi NNE 8.1 mph - N/A   Mostly Cloudy
8:35 AM 62.1 °F 54.5 °F 76% 30.04 in 10.0 mi NNE 10.4 mph - N/A   Overcast
8:55 AM 62.4 °F 54.7 °F 76% 30.05 in 10.0 mi North 9.2 mph - N/A   Overcast
9:15 AM 62.6 °F 55.0 °F 76% 30.06 in 10.0 mi NNE 10.4 mph - N/A   Overcast
9:35 AM 63.1 °F 55.9 °F 77% 30.06 in 10.0 mi NNE 10.4 mph - N/A   Overcast
9:55 AM 65.1 °F 57.6 °F 76% 30.06 in 10.0 mi NNE 10.4 mph - N/A   Mostly Cloudy
10:15 AM 66.6 °F 58.1 °F 74% 30.06 in 10.0 mi NNE 8.1 mph - N/A   Overcast
10:35 AM 68.5 °F 59.2 °F 72% 30.06 in 10.0 mi NE 9.2 mph - N/A   Mostly Cloudy
10:55 AM 68.2 °F 59.4 °F 73% 30.06 in 10.0 mi NE 9.2 mph - N/A   Mostly Cloudy
11:15 AM 69.6 °F 60.4 °F 73% 30.05 in 10.0 mi NNE 8.1 mph - N/A   Overcast
11:35 AM 70.0 °F 61.9 °F 75% 30.05 in 10.0 mi NNE 10.4 mph - N/A   Overcast
11:55 AM 71.6 °F 63.1 °F 75% 30.04 in 10.0 mi NE 10.4 mph - N/A   Overcast
12:15 PM 72.3 °F 64.2 °F 76% 30.04 in 10.0 mi ENE 9.2 mph 16.1 mph N/A   Overcast
12:35 PM 72.9 °F 63.9 °F 73% 30.03 in 10.0 mi ENE 10.4 mph - N/A   Overcast
12:55 PM 72.5 °F 64.0 °F 75% 30.03 in 10.0 mi NE 10.4 mph - N/A   Overcast
1:15 PM 72.7 °F 63.9 °F 74% 30.02 in 10.0 mi NE 10.4 mph - N/A   Overcast
1:35 PM 72.3 °F 63.5 °F 74% 30.01 in 10.0 mi NE 8.1 mph - N/A   Overcast
1:55 PM 72.7 °F 63.7 °F 73% 29.99 in 10.0 mi ENE 10.4 mph - N/A   Overcast
2:15 PM 73.8 °F 63.9 °F 71% 29.98 in 10.0 mi ENE 8.1 mph - N/A   Overcast
2:35 PM 74.5 °F 63.9 °F 69% 29.97 in 10.0 mi ENE 8.1 mph - N/A   Overcast
2:55 PM 74.7 °F 62.8 °F 66% 29.96 in 10.0 mi ENE 9.2 mph - N/A   Overcast
3:15 PM 74.3 °F 63.5 °F 69% 29.95 in 10.0 mi ENE 8.1 mph - N/A   Overcast
3:35 PM 74.7 °F 63.5 °F 68% 29.94 in 10.0 mi ENE 5.8 mph - N/A   Mostly Cloudy
3:55 PM 75.2 °F 63.3 °F 66% 29.94 in 10.0 mi East 5.8 mph - N/A   Overcast
4:15 PM 75.2 °F 62.6 °F 65% 29.93 in 10.0 mi East 5.8 mph - N/A   Mostly Cloudy
4:35 PM 75.6 °F 63.1 °F 65% 29.93 in 10.0 mi ESE 6.9 mph - N/A   Scattered Clouds
4:55 PM 75.2 °F 60.8 °F 61% 29.93 in 10.0 mi ESE 6.9 mph - N/A   Scattered Clouds
5:15 PM 75.6 °F 61.0 °F 60% 29.93 in 10.0 mi ESE 5.8 mph - N/A   Mostly Cloudy
5:35 PM 75.2 °F 61.2 °F 62% 29.93 in 10.0 mi ESE 5.8 mph - N/A   Overcast
5:55 PM 74.8 °F 61.0 °F 62% 29.93 in 10.0 mi ESE 6.9 mph - N/A   Overcast
6:15 PM 74.3 °F 62.1 °F 65% 29.92 in 10.0 mi ESE 8.1 mph - N/A   Mostly Cloudy
6:35 PM 73.8 °F 62.1 °F 67% 29.92 in 10.0 mi ESE 6.9 mph - N/A   Scattered Clouds
6:55 PM 73.4 °F 61.2 °F 65% 29.92 in 10.0 mi ESE 5.8 mph - N/A   Mostly Cloudy
7:15 PM 72.9 °F 60.8 °F 66% 29.92 in 10.0 mi ESE 8.1 mph - N/A   Scattered Clouds
7:35 PM 73.0 °F 60.8 °F 65% 29.92 in 10.0 mi ESE 5.8 mph - N/A   Clear
7:55 PM 73.2 °F 60.4 °F 64% 29.92 in 10.0 mi ESE 8.1 mph - N/A   Clear
8:15 PM 73.4 °F 60.3 °F 63% 29.92 in 10.0 mi ESE 5.8 mph - N/A   Clear
8:35 PM 73.4 °F 60.4 °F 64% 29.92 in 10.0 mi ESE 5.8 mph - N/A   Clear
8:55 PM 73.8 °F 60.4 °F 63% 29.92 in 10.0 mi ESE 8.1 mph - N/A   Clear
9:15 PM 73.6 °F 60.8 °F 64% 29.93 in 10.0 mi SE 8.1 mph - N/A   Clear
9:35 PM 73.4 °F 61.9 °F 67% 29.93 in 10.0 mi SE 9.2 mph - N/A   Clear
9:55 PM 73.6 °F 62.6 °F 68% 29.93 in 10.0 mi SE 8.1 mph - N/A   Clear
10:15 PM 73.8 °F 62.6 °F 68% 29.93 in 10.0 mi SE 9.2 mph - N/A   Scattered Clouds
10:35 PM 73.6 °F 62.8 °F 69% 29.94 in 10.0 mi SE 8.1 mph - N/A   Clear
10:55 PM 73.6 °F 62.8 °F 69% 29.93 in 10.0 mi SE 11.5 mph - N/A   Clear
11:15 PM 73.9 °F 63.1 °F 69% 29.94 in 10.0 mi SE 10.4 mph - N/A   Clear
11:35 PM 74.3 °F 63.9 °F 70% 29.94 in 10.0 mi ESE 9.2 mph - N/A   Scattered Clouds
11:55 PM 74.3 °F 64.4 °F 71% 29.93 in 10.0 mi ESE 10.4 mph - N/A   Scattered Clouds